This is the latest recevied weather packets stored in our database for station/object KQ4JKJ. If no packets are shown the sender has not sent any weather packets the latest 10 day(s).
| Time | Temp. | Humidity | Pressure | Rain* | Wind** | Luminosity | Snow |
|---|---|---|---|---|---|---|---|
| 1777829757 | 23.89° C | 75% | 1011.9 hPa | 0 mm | - | 356 W/m² | - |
| 1777829454 | 24.44° C | 74% | 1011.9 hPa | 0 mm | - | 303 W/m² | - |
| 1777829151 | 23.89° C | 76% | 1011.6 hPa | 0 mm | - | 303 W/m² | - |
| 1777828848 | 24.44° C | 75% | 1011.7 hPa | 0 mm | - | 384 W/m² | - |
| 1777828545 | 24.44° C | 75% | 1011.8 hPa | 0 mm | - | 393 W/m² | - |
| 1777828242 | 24.44° C | 75% | 1011.8 hPa | 0 mm | - | 330 W/m² | - |
| 1777827938 | 23.89° C | 76% | 1011.8 hPa | 0 mm | - | 376 W/m² | - |
| 1777827635 | 24.44° C | 74% | 1011.9 hPa | 0 mm | - | 348 W/m² | - |
| 1777827333 | 23.89° C | 75% | 1011.8 hPa | 0 mm | - | 450 W/m² | - |
| 1777827029 | 23.89° C | 77% | 1012.1 hPa | 0 mm | - | 298 W/m² | - |
| 1777826726 | 23.33° C | 78% | 1012.1 hPa | 0 mm | - | 318 W/m² | - |
| 1777826422 | 23.33° C | 78% | 1012.3 hPa | 0 mm | - | 213 W/m² | - |
| 1777826120 | 23.33° C | 77% | 1012.2 hPa | 0 mm | - | 217 W/m² | - |
| 1777825816 | 23.33° C | 78% | 1012.2 hPa | 0 mm | - | 239 W/m² | - |
| 1777825514 | 23.33° C | 76% | 1012.2 hPa | 0 mm | - | 231 W/m² | - |
| 1777825211 | 23.33° C | 77% | 1012.2 hPa | 0 mm | - | 322 W/m² | - |
| 1777824903 | 22.78° C | 78% | 1012.3 hPa | 0 mm | - | 185 W/m² | - |
| 1777824599 | 23.89° C | 77% | 1012.3 hPa | 0 mm | - | 178 W/m² | - |
| 1777824295 | 23.89° C | 77% | 1012.1 hPa | 0 mm | - | 233 W/m² | - |
| 1777823990 | 23.89° C | 76% | 1012.3 hPa | 0 mm | - | 309 W/m² | - |
| 1777823687 | 23.33° C | 78% | 1012.2 hPa | 0 mm | - | 305 W/m² | - |
| 1777823379 | 22.78° C | 77% | 1012.2 hPa | 0 mm | - | 245 W/m² | - |
| 1777823077 | 23.33° C | 77% | 1012.1 hPa | 0 mm | - | 212 W/m² | - |
| 1777822775 | 22.78° C | 79% | 1012.1 hPa | 0 mm | - | 238 W/m² | - |
| 1777822472 | 22.78° C | 77% | 1012.3 hPa | 0 mm | - | 187 W/m² | - |
* Rain latest hour (hover to see other rain measurements)
** Current wind speed in m/s (hover to see current wind gust speed)